Mega Smeralda — ICIU — position and weather

sailwx.info

Track history (hours):
 
Tides and Currents Weather Stations Pressure Air Temp Water Temp Dewpoint Dewpoint Depression Visibility Wind Speed Wind Dir Waves Ship Positions

Mega Smeralda

Last reported at 2014-Oct-30 22:33 UTC. Time now 2014-Oct-31 05:36 UTC.
Position N 42°44' E 006°35'.

Length 171 m; draft 6.5 m.

Type: Passenger vessel. MMSI: 247228600.

Date/timePositionNaut miles runAvg speedWind from/ knotsBaromVisibWave heightAir tempDewpointWater temp
2014-Oct-30 22:33N 42°44' E 006°35'1515.2
2014-Oct-30 21:33N 42°51' E 006°17'1515.0
2014-Oct-30 20:33N 43°00' E 006°01'8 7.7
2014-Oct-30 19:33N 43°07' E 005°56'0 0.0
2014-Oct-30 18:33N 43°07' E 005°56'0 0.0
2014-Oct-30 17:33N 43°07' E 005°56'0 0.0
2014-Oct-30 16:33N 43°07' E 005°56'0 0.0
2014-Oct-30 15:33N 43°07' E 005°56'0 0.0
2014-Oct-30 14:33N 43°07' E 005°56'0 0.0
2014-Oct-30 13:33N 43°07' E 005°56'0 0.0
2014-Oct-30 10:30N 43°07' E 005°56'0 0.0
2014-Oct-30 09:33N 43°07' E 005°56'0 0.0
2014-Oct-30 08:33N 43°07' E 005°56'0 0.0
2014-Oct-30 07:33N 43°07' E 005°56'0 0.0
2014-Oct-30 06:33N 43°07' E 005°56'6 5.7
2014-Oct-30 05:34N 43°02' E 005°60'1615.5
2014-Oct-30 04:34N 42°55' E 006°18'1817.7
2014-Oct-30 03:33N 42°56' E 006°43'1817.9
2014-Oct-30 02:34N 42°58' E 007°07'8917.7
2014-Oct-29 21:33N 43°03' E 009°08'30 5.7
2014-Oct-29 16:13N 42°53' E 009°47'1116.6
2014-Oct-29 15:33N 43°01' E 009°58'1817.6
2014-Oct-29 14:33N 43°17' E 010°06'1616.3
2014-Oct-29 13:33N 43°32' E 010°15'2 2.2
2014-Oct-29 12:33N 43°33' E 010°18'2 1.9
2014-Oct-29 11:33N 43°32' E 010°16'1616.4
2014-Oct-29 10:33N 43°20' E 010°00'1917.7
2014-Oct-29 09:30N 43°07' E 009°43'11611.2
2014-Oct-28 23:09N 42°58' E 007°04'1118.3
2014-Oct-28 22:33N 42°57' E 006°50'1818.1
2014-Oct-28 21:33N 42°56' E 006°25'1716.9
2014-Oct-28 20:34N 42°60' E 006°02'9 8.6
2014-Oct-28 19:32N 43°07' E 005°56'0 0.0
2014-Oct-28 18:33N 43°07' E 005°56'0 0.0
2014-Oct-28 17:33N 43°07' E 005°56'0 0.0
2014-Oct-28 16:33N 43°07' E 005°56'0 0.0
2014-Oct-28 15:33N 43°07' E 005°56'0 0.0
2014-Oct-28 14:33N 43°07' E 005°56'0 0.0
2014-Oct-28 13:33N 43°07' E 005°56'0 0.0
2014-Oct-28 12:33N 43°07' E 005°56'0 0.0
2014-Oct-28 11:33N 43°07' E 005°56'0 0.0
2014-Oct-28 10:33N 43°07' E 005°56'0 0.0
2014-Oct-28 09:33N 43°07' E 005°56'0 0.0
2014-Oct-28 08:33N 43°07' E 005°56'0 0.0
2014-Oct-28 07:33N 43°07' E 005°56'0 0.0
2014-Oct-28 06:33N 43°07' E 005°56'5 5.1
2014-Oct-28 05:34N 43°03' E 005°60'1514.6
2014-Oct-28 04:34N 42°56' E 006°17'1817.6
2014-Oct-28 03:34N 42°57' E 006°42'1717.4
2014-Oct-28 02:34N 42°58' E 007°05'8816.9
2014-Oct-27 21:20N 43°02' E 009°06'1417.4
2014-Oct-27 20:32N 43°04' E 009°24'107 5.0
2014-Oct-26 23:04N 42°57' E 006°58'816.6
2014-Oct-26 22:33N 42°57' E 006°46'1716.5
2014-Oct-26 21:33N 42°56' E 006°24'1615.8
2014-Oct-26 20:33N 42°59' E 006°03'9 9.1
2014-Oct-26 19:33N 43°07' E 005°56'0 0.0
2014-Oct-26 18:30N 43°07' E 005°56'27 1.9
2014-Oct-26 04:33N 42°56' E 006°29'1313.0
2014-Oct-26 03:33N 42°57' E 006°47'1312.7
2014-Oct-26 02:33N 42°57' E 007°04'1212.5
2014-Oct-26 01:33N 42°58' E 007°21'7915.7
2014-Oct-25 20:31N 43°03' E 009°09'1515.2
2014-Oct-25 19:30N 43°01' E 009°30'15 3.5
2014-Oct-25 15:17N 42°53' E 009°47'1217.0
2014-Oct-25 14:33N 43°02' E 009°59'1817.6
2014-Oct-25 13:34N 43°19' E 010°07'1514.9
2014-Oct-25 12:33N 43°32' E 010°16'1 1.4
2014-Oct-25 11:33N 43°33' E 010°18'3 3.0
2014-Oct-25 10:33N 43°31' E 010°15'1615.7
2014-Oct-25 09:33N 43°20' E 010°00'1715.3
2014-Oct-25 08:28N 43°08' E 009°44'20 3.9
2014-Oct-25 03:19N 43°03' E 009°17'5818.9
2014-Oct-25 00:15N 43°01' E 007°58'1318.6
2014-Oct-24 23:32N 42°60' E 007°40'3819.3
2014-Oct-24 21:33N 42°58' E 006°48'1918.5
2014-Oct-24 20:31N 42°57' E 006°22'1714.9
2014-Oct-24 19:21N 43°03' E 005°59'5 2.3
2014-Oct-24 17:07N 43°07' E 005°56'0 0.0
2014-Oct-24 16:28N 43°07' E 005°56'6 5.7
2014-Oct-24 15:29N 43°02' E 005°60'1616.9
2014-Oct-24 14:33N 42°52' E 006°16'1716.7
2014-Oct-24 13:34N 42°44' E 006°36'1717.5
2014-Oct-24 12:33N 42°35' E 006°56'1717.3
2014-Oct-24 11:33N 42°26' E 007°16'5416.7
2014-Oct-24 08:21N 41°56' E 008°17'126 7.8
2014-Oct-23 16:12N 43°07' E 005°56'0 0.0
2014-Oct-23 15:33N 43°07' E 005°56'0 0.0
2014-Oct-23 14:33N 43°07' E 005°56'0 0.0
2014-Oct-23 13:33N 43°07' E 005°56'0 0.0
2014-Oct-23 12:33N 43°07' E 005°56'0 0.0
2014-Oct-23 11:33N 43°07' E 005°56'0 0.0
2014-Oct-23 10:33N 43°07' E 005°56'0 0.0
2014-Oct-23 09:33N 43°07' E 005°56'0 0.0
2014-Oct-23 08:33N 43°07' E 005°56'0 0.0
2014-Oct-23 07:33N 43°07' E 005°56'8 8.0
2014-Oct-23 06:32N 43°01' E 006°03'2518.0
2014-Oct-23 05:07N 42°47' E 006°32'1017.5
2014-Oct-23 04:33N 42°44' E 006°45'2017.4
2014-Oct-23 03:25N 42°36' E 007°10'46 1.5
2014-Oct-21 20:33N 42°52' E 006°12'1615.7
2014-Oct-21 19:34N 43°04' E 005°58'3 3.2
2014-Oct-21 18:34N 43°07' E 005°56'0 0.0
2014-Oct-21 17:33N 43°07' E 005°56'0 0.0
2014-Oct-21 16:33N 43°07' E 005°56'0 0.0
2014-Oct-21 15:33N 43°07' E 005°56'0 0.0
2014-Oct-21 14:33N 43°07' E 005°56'0 0.0
2014-Oct-21 09:23N 43°07' E 005°56'0 0.0
2014-Oct-21 08:26N 43°07' E 005°56'0 0.0
2014-Oct-21 07:33N 43°07' E 005°56'0 0.0
2014-Oct-21 06:33N 43°07' E 005°56'0 0.0
2014-Oct-21 05:34N 43°07' E 005°56'3 2.8
2014-Oct-21 04:33N 43°05' E 005°58'1716.4
2014-Oct-21 03:30N 42°56' E 006°19'1617.5
2014-Oct-21 02:33N 42°56' E 006°41'1717.1
2014-Oct-21 01:33N 42°57' E 007°05'  
Track history (hours):
 
Tides and Currents Weather Stations Pressure Air Temp Water Temp Dewpoint Dewpoint Depression Visibility Wind Speed Wind Dir Waves Ship Positions

Mega Smeralda

Last reported at 2014-Oct-30 22:33 UTC. Time now 2014-Oct-31 05:36 UTC.
Position N 42°44' E 006°35'.

Length 171 m; draft 6.5 m.

Type: Passenger vessel. MMSI: 247228600.

Date/timePositionNaut miles runAvg speedWind from/ knotsBaromVisibWave heightAir tempDewpointWater temp
2014-Oct-30 22:33N 42°44' E 006°35'1515.2
2014-Oct-30 21:33N 42°51' E 006°17'1515.0
2014-Oct-30 20:33N 43°00' E 006°01'8 7.7
2014-Oct-30 19:33N 43°07' E 005°56'0 0.0
2014-Oct-30 18:33N 43°07' E 005°56'0 0.0
2014-Oct-30 17:33N 43°07' E 005°56'0 0.0
2014-Oct-30 16:33N 43°07' E 005°56'0 0.0
2014-Oct-30 15:33N 43°07' E 005°56'0 0.0
2014-Oct-30 14:33N 43°07' E 005°56'0 0.0
2014-Oct-30 13:33N 43°07' E 005°56'0 0.0
2014-Oct-30 10:30N 43°07' E 005°56'0 0.0
2014-Oct-30 09:33N 43°07' E 005°56'0 0.0
2014-Oct-30 08:33N 43°07' E 005°56'0 0.0
2014-Oct-30 07:33N 43°07' E 005°56'0 0.0
2014-Oct-30 06:33N 43°07' E 005°56'6 5.7
2014-Oct-30 05:34N 43°02' E 005°60'1615.5
2014-Oct-30 04:34N 42°55' E 006°18'1817.7
2014-Oct-30 03:33N 42°56' E 006°43'1817.9
2014-Oct-30 02:34N 42°58' E 007°07'8917.7
2014-Oct-29 21:33N 43°03' E 009°08'30 5.7
2014-Oct-29 16:13N 42°53' E 009°47'1116.6
2014-Oct-29 15:33N 43°01' E 009°58'1817.6
2014-Oct-29 14:33N 43°17' E 010°06'1616.3
2014-Oct-29 13:33N 43°32' E 010°15'2 2.2
2014-Oct-29 12:33N 43°33' E 010°18'2 1.9
2014-Oct-29 11:33N 43°32' E 010°16'1616.4
2014-Oct-29 10:33N 43°20' E 010°00'1917.7
2014-Oct-29 09:30N 43°07' E 009°43'11611.2
2014-Oct-28 23:09N 42°58' E 007°04'1118.3
2014-Oct-28 22:33N 42°57' E 006°50'1818.1
2014-Oct-28 21:33N 42°56' E 006°25'1716.9
2014-Oct-28 20:34N 42°60' E 006°02'9 8.6
2014-Oct-28 19:32N 43°07' E 005°56'0 0.0
2014-Oct-28 18:33N 43°07' E 005°56'0 0.0
2014-Oct-28 17:33N 43°07' E 005°56'0 0.0
2014-Oct-28 16:33N 43°07' E 005°56'0 0.0
2014-Oct-28 15:33N 43°07' E 005°56'0 0.0
2014-Oct-28 14:33N 43°07' E 005°56'0 0.0
2014-Oct-28 13:33N 43°07' E 005°56'0 0.0
2014-Oct-28 12:33N 43°07' E 005°56'0 0.0
2014-Oct-28 11:33N 43°07' E 005°56'0 0.0
2014-Oct-28 10:33N 43°07' E 005°56'0 0.0
2014-Oct-28 09:33N 43°07' E 005°56'0 0.0
2014-Oct-28 08:33N 43°07' E 005°56'0 0.0
2014-Oct-28 07:33N 43°07' E 005°56'0 0.0
2014-Oct-28 06:33N 43°07' E 005°56'5 5.1
2014-Oct-28 05:34N 43°03' E 005°60'1514.6
2014-Oct-28 04:34N 42°56' E 006°17'1817.6
2014-Oct-28 03:34N 42°57' E 006°42'1717.4
2014-Oct-28 02:34N 42°58' E 007°05'8816.9
2014-Oct-27 21:20N 43°02' E 009°06'1417.4
2014-Oct-27 20:32N 43°04' E 009°24'107 5.0
2014-Oct-26 23:04N 42°57' E 006°58'816.6
2014-Oct-26 22:33N 42°57' E 006°46'1716.5
2014-Oct-26 21:33N 42°56' E 006°24'1615.8
2014-Oct-26 20:33N 42°59' E 006°03'9 9.1
2014-Oct-26 19:33N 43°07' E 005°56'0 0.0
2014-Oct-26 18:30N 43°07' E 005°56'27 1.9
2014-Oct-26 04:33N 42°56' E 006°29'1313.0
2014-Oct-26 03:33N 42°57' E 006°47'1312.7
2014-Oct-26 02:33N 42°57' E 007°04'1212.5
2014-Oct-26 01:33N 42°58' E 007°21'7915.7
2014-Oct-25 20:31N 43°03' E 009°09'1515.2
2014-Oct-25 19:30N 43°01' E 009°30'15 3.5
2014-Oct-25 15:17N 42°53' E 009°47'1217.0
2014-Oct-25 14:33N 43°02' E 009°59'1817.6
2014-Oct-25 13:34N 43°19' E 010°07'1514.9
2014-Oct-25 12:33N 43°32' E 010°16'1 1.4
2014-Oct-25 11:33N 43°33' E 010°18'3 3.0
2014-Oct-25 10:33N 43°31' E 010°15'1615.7
2014-Oct-25 09:33N 43°20' E 010°00'1715.3
2014-Oct-25 08:28N 43°08' E 009°44'20 3.9
2014-Oct-25 03:19N 43°03' E 009°17'5818.9
2014-Oct-25 00:15N 43°01' E 007°58'1318.6
2014-Oct-24 23:32N 42°60' E 007°40'3819.3
2014-Oct-24 21:33N 42°58' E 006°48'1918.5
2014-Oct-24 20:31N 42°57' E 006°22'1714.9
2014-Oct-24 19:21N 43°03' E 005°59'5 2.3
2014-Oct-24 17:07N 43°07' E 005°56'0 0.0
2014-Oct-24 16:28N 43°07' E 005°56'6 5.7
2014-Oct-24 15:29N 43°02' E 005°60'1616.9
2014-Oct-24 14:33N 42°52' E 006°16'1716.7
2014-Oct-24 13:34N 42°44' E 006°36'1717.5
2014-Oct-24 12:33N 42°35' E 006°56'1717.3
2014-Oct-24 11:33N 42°26' E 007°16'5416.7
2014-Oct-24 08:21N 41°56' E 008°17'126 7.8
2014-Oct-23 16:12N 43°07' E 005°56'0 0.0
2014-Oct-23 15:33N 43°07' E 005°56'0 0.0
2014-Oct-23 14:33N 43°07' E 005°56'0 0.0
2014-Oct-23 13:33N 43°07' E 005°56'0 0.0
2014-Oct-23 12:33N 43°07' E 005°56'0 0.0
2014-Oct-23 11:33N 43°07' E 005°56'0 0.0
2014-Oct-23 10:33N 43°07' E 005°56'0 0.0
2014-Oct-23 09:33N 43°07' E 005°56'0 0.0
2014-Oct-23 08:33N 43°07' E 005°56'0 0.0
2014-Oct-23 07:33N 43°07' E 005°56'8 8.0
2014-Oct-23 06:32N 43°01' E 006°03'2518.0
2014-Oct-23 05:07N 42°47' E 006°32'1017.5
2014-Oct-23 04:33N 42°44' E 006°45'2017.4
2014-Oct-23 03:25N 42°36' E 007°10'46 1.5
2014-Oct-21 20:33N 42°52' E 006°12'1615.7
2014-Oct-21 19:34N 43°04' E 005°58'3 3.2
2014-Oct-21 18:34N 43°07' E 005°56'0 0.0
2014-Oct-21 17:33N 43°07' E 005°56'0 0.0
2014-Oct-21 16:33N 43°07' E 005°56'0 0.0
2014-Oct-21 15:33N 43°07' E 005°56'0 0.0
2014-Oct-21 14:33N 43°07' E 005°56'0 0.0
2014-Oct-21 09:23N 43°07' E 005°56'0 0.0
2014-Oct-21 08:26N 43°07' E 005°56'0 0.0
2014-Oct-21 07:33N 43°07' E 005°56'0 0.0
2014-Oct-21 06:33N 43°07' E 005°56'0 0.0
2014-Oct-21 05:34N 43°07' E 005°56'3 2.8
2014-Oct-21 04:33N 43°05' E 005°58'1716.4
2014-Oct-21 03:30N 42°56' E 006°19'1617.5
2014-Oct-21 02:33N 42°56' E 006°41'1717.1
2014-Oct-21 01:33N 42°57' E 007°05'  

Dump ship's entire track history